Regional Weather Roundup
Issued by NWS Kansas City/Pleasant Hill, MO

Home | Current Version | Previous Version | Graphics & Text | Print | Product List | Glossary Off
Versions: 1 2 3 4 5 6 7 8 9 10 11 12 13 14 15 16 17 18 19 20 21 22 23 24 25 26 27 28 29 30 31 32 33 34 35 36 37 38 39 40 41 42 43 44 45 46 47 48 49 50

000
ASUS43 KEAX 120810
RWREAX

WEATHER ROUNDUP FOR EASTERN KANSAS AND NORTHWEST MISSOURI
NATIONAL WEATHER SERVICE KANSAS CITY/PLEASANT HILL MO
200 AM CST TUE DEC 12 2017

KSZ040-057-103>105-MOZ028-029-037-043-120900-
...KANSAS CITY METROPOLITAN AREA...

CITY           SKY/WX    TMP DP  RH WIND       PRES   REMARKS
K.C. INTL      CLEAR     29  22  75 N10       30.29R WCI  20
K.C. DOWNTOWN  CLEAR     32  22  66 NW9       30.29R WCI  24
LEES SUMMIT    CLEAR     30  21  69 N17       30.28R WCI  18
OLATHE - IXD   CLEAR     30  20  66 NW15      30.30R WCI  19
OLATHE - OJC   CLEAR     30  22  72 NW13G21   30.28R WCI  20
LAWRENCE       CLEAR     31  20  63 NW16      30.32R WCI  20

$$

MOZ001>008-011>017-020>025-030>033-038>040-044>046-053-054-120900-
...NORTHERN AND CENTRAL MISSOURI...

CITY           SKY/WX    TMP DP  RH WIND       PRES   REMARKS
ST. JOSEPH     CLEAR     27  19  72 N20       30.33R WCI  13
MOSBY          SUNNY     30  21  69 NW9       30.30R WCI  22
WARRENSBURG    CLEAR     30  21  69 NW13G21   30.26R WCI  20
WHITEMAN AFB   CLEAR     29  21  70 N9        30.20R WCI  21
CLINTON        CLEAR     32  23  69 N12       30.26R WCI  23
SEDALIA        CLEAR     30  23  75 NW18      30.24R WCI  18
WARSAW         NOT AVBL
CHILLICOTHE      N/A     25  16  68 NW10G22   30.28R WCI  15
KIRKSVILLE     CLOUDY    26  18  71 NW20G26   30.22R WCI  12

$$

MOZ041-047>049-056>058-063>065-088>090-097-120900-
...EASTERN AND SOUTHERN MISSOURI...

CITY           SKY/WX    TMP DP  RH WIND       PRES   REMARKS
ST. LOUIS INTL CLOUDY    39  29  67 NW20G33   30.08R WCI  29
SPIRIT OF STL  CLOUDY    40  28  62 NW15G29   30.09R WCI  32
COLUMBIA       CLOUDY    34  23  64 NW20G29   30.17R WCI  23
JEFFERSON CITY CLOUDY    38  26  62 NW10G23   30.19R WCI  31
ROLLA          CLOUDY    37  28  70 NW13      30.13R WCI  29
OSAGE BEACH    CLOUDY    36  24  62 VRB5G18   30.20R WCI  32
SPRINGFIELD    CLEAR     36  25  64 NW18      30.20R WCI  26
BRANSON        CLOUDY    39  25  56 NW17G26   30.19R WCI  30
JOPLIN         CLEAR     35  22  58 NW14      30.28R WCI  26
WEST PLAINS    LGT RAIN  42  30  62 NW18G33   30.11R WCI  34

$$

IAZ060-094-KSZ022-034>040-054-083-096-NEZ052-066-093-120900-
...KANSAS...SOUTHEAST NEBRASKA AND IOWA...

CITY           SKY/WX    TMP DP  RH WIND       PRES   REMARKS
TOPEKA         CLEAR     32  23  69 NW12      30.34R WCI  23
MANHATTAN      CLEAR     35  23  61 NW6       30.37S WCI  30
EMPORIA        CLEAR     33  24  69 NW10      30.34R WCI  25
CHANUTE        CLEAR     36  26  67 N12       30.32R WCI  28
WICHITA        PTCLDY    37  28  70 N14       30.37R WCI  28
OMAHA          CLEAR     20  12  71 N14       30.36R WCI   7
LINCOLN        CLEAR     25  18  74 N12       30.39R WCI  14
FALLS CITY     CLEAR     25  17  72 NW9       30.34R WCI  15
LAMONI         CLEAR     19  12  74 NW9       30.26R WCI   8
DES MOINES     CLEAR     18  12  77 NW12      30.27R WCI   5

$$




USA.gov is the U.S. government's official web portal to all federal, state and local government web resources and services.